Simultaneous Nadir Overpasses (SNOs) Predictions

Prediction of SNOs between METOP-B and NOAA-19 Satellite Orbit:

Table of predicted SNOs for the next 14.0 days since TLE Epoch: 11/13/2021
Index Date (METOP-B) Time (METOP-B) Lat,Lon (METOP-B) SZA (METOP-B ) Date (NOAA-19) Time (NOAA-19) Lat,Lon (NOAA-19) SZA (NOAA-19 ) Distance(km) Time Diff (sec)
1 11/14/2021 05:02:12 -80.68, -44.79 79.50 11/14/2021 05:01:08 -80.70, -44.91 79.53 2.72 64
2 11/14/2021 05:52:52 80.69, 122.67 100.53 11/14/2021 05:52:06 80.69, 122.62 100.51 1.06 46
3 11/14/2021 06:43:33 -80.69, -69.93 79.45 11/14/2021 06:43:07 -80.68, -69.98 79.48 1.84 26
4 11/14/2021 07:34:14 80.68, 97.19 100.53 11/14/2021 07:34:06 80.68, 97.18 100.53 0.36 8
5 11/14/2021 08:24:55 -80.69, -95.41 79.46 11/14/2021 08:25:07 -80.68, -95.41 79.46 0.78 12
6 11/14/2021 09:15:36 80.67, 71.71 100.53 11/14/2021 09:16:06 80.68, 71.75 100.55 1.39 30
7 11/14/2021 10:06:17 -80.68,-120.89 79.46 11/14/2021 10:07:07 -80.68,-120.84 79.44 0.93 50
8 11/14/2021 10:56:58 80.66, 46.22 100.52 11/14/2021 10:58:06 80.68, 46.32 100.57 2.56 68
9 11/25/2021 08:47:37 80.68, 78.88 102.98 11/25/2021 08:46:30 80.70, 78.99 102.98 2.73 67
10 11/25/2021 09:38:18 -80.69,-113.72 77.01 11/25/2021 09:37:34 -80.70,-113.73 77.02 1.25 44
11 11/25/2021 10:28:58 80.70, 53.74 103.02 11/25/2021 10:28:30 80.70, 53.56 102.99 3.31 28
12 11/25/2021 11:19:39 -80.70,-138.86 76.97 11/25/2021 11:19:33 -80.69,-138.81 76.98 1.92 6
13 11/25/2021 12:10:20 80.69, 28.25 103.01 11/25/2021 12:10:30 80.70, 28.12 103.01 2.64 10
14 11/25/2021 13:01:01 -80.69,-164.35 76.98 11/25/2021 13:01:33 -80.68,-164.24 76.96 2.13 32
15 11/25/2021 13:51:41 80.70, 3.11 103.05 11/25/2021 13:52:29 80.68, 3.04 103.05 2.20 48



Historial Predications of SNOs between METOP-B and NOAA-19
